Погода в Мари-Луговой

Россия / Республика Марий Эл     55°56′20″N   48°11′49″E
темп.,
°C
ветер,
м/с
пор.,
м/с
влажн.,
%
обл.,
%
осадки,
мм/ч
давл.,
гПа
погр.,
м
21 января, пт
пт2100:00−9ю51389100 0.0 1015353
03:00−11ю4118975 0.0 1016278
06:00−13ю5129197 0.0 1016260
09:00−12ю51391100 0.0 1017298
12:00−10ю51389100 0.0 1017397
15:00−10ююв51389100 0.0 1016365
18:00−11ююв51492100 0.0 1017323
21:00−11юв61590100 0.0 1016387
22 января, сб
сб2200:00−11юв61691100 0.0 1016440
03:00−10юв71690100 0.0 1016503
06:00−9юв61493100 0.3 1016524
09:00−8ююв51194100 0.8 1018513
12:00−7юв5994100 0.6 1019509
15:00−6юв4993100 0.8 1020462
18:00−6юв4995100 0.4 1021379
21:00−6юв4896100 0.9 1022341
23 января, вс
вс2300:00−6юв4996100 0.8 1023378
03:00−5юв41096100 1.9 1023476
06:00−5ююв41096100 0.9 1024521
09:00−5ююв4996100 1.9 1027455
12:00−4ююв4794100 0.6 1029407
15:00−5ююв3695100 0.6 1031294
18:00−6юв2696100 0.1 1034187
21:00−7юв2697100 0.2 1035180
24 января, пн
пн2400:00−7юв2596100 0.3 1036184
03:00−8вюв2495100 0.3 103789
06:00−8вюв2592100 0.0 1037124
09:00−12вюв2296100 0.0 103825
12:00−8ююв2484100 0.0 1038168
15:00−10юв119299 0.0 103810
18:00−13юв2494100 0.0 103849
21:00−14ююв2394100 0.0 103752
25 января, вт
вт2500:00−17юв2298100 0.0 103618
03:00−20юв2210097 0.0 103616
06:00−20юв2299100 0.0 103529
09:00−18ююв2493100 0.0 103571
12:00−11ю3781100 0.0 1033179
15:00−12ююв3885100 0.0 1033161
18:00−17ююв369086 0.0 103374
21:00−19ююв349365 0.0 103353